| time (UTC) | temp F | wind direction | speed knots | gust knots | rain 1hr in | rain 24hr in | rain mn in | humidity % | barometer mb |
| 20260506162326 | 61 | 199 | 1.7 | 1.7 | 0.00 | 0.00 | 0.00 | 80 | 1009.7 |
| 20260506161823 | 61 | 153 | 3.5 | 3.5 | 0.00 | 0.00 | 0.00 | 79 | 1009.6 |
| 20260506161320 | 61 | 237 | 2.6 | 3.5 | 0.00 | 0.00 | 0.00 | 78 | 1009.5 |
| 20260506160818 | 61 | 187 | 0.0 | 0.9 | 0.00 | 0.00 | 0.00 | 78 | 1009.7 |
| 20260506160314 | 61 | 125 | 2.6 | 2.6 | 0.00 | 0.00 | 0.00 | 78 | 1009.8 |
| 20260506155813 | 61 | 153 | 0.9 | 0.9 | 0.00 | 0.00 | 0.00 | 77 | 1009.7 |
| 20260506155309 | 62 | 150 | 1.7 | 1.7 | 0.00 | 0.00 | 0.00 | 76 | 1009.8 |
| 20260506153421 | 63 | 128 | 5.2 | 8.7 | 0.00 | 0.00 | 0.00 | 74 | 1009.9 |
| 20260506152919 | 63 | 186 | 2.6 | 2.6 | 0.00 | 0.00 | 0.00 | 75 | 1009.9 |
| 20260506152415 | 63 | 203 | 3.5 | 5.2 | 0.00 | 0.00 | 0.00 | 74 | 1010.2 |
| 20260506151914 | 62 | 159 | 2.6 | 2.6 | 0.00 | 0.00 | 0.00 | 76 | 1010.0 |
| 20260506151411 | 62 | 226 | 2.6 | 2.6 | 0.00 | 0.00 | 0.00 | 75 | 1009.9 |
| 20260506150909 | 62 | 207 | 1.7 | 1.7 | 0.00 | 0.00 | 0.00 | 75 | 1009.7 |
| 20260506150404 | 62 | 187 | 1.7 | 1.7 | 0.00 | 0.00 | 0.00 | 76 | 1009.8 |
| 20260506145901 | 62 | 216 | 1.7 | 2.6 | 0.00 | 0.00 | 0.00 | 76 | 1009.8 |
| 20260506145358 | 62 | 186 | 1.7 | 1.7 | 0.00 | 0.00 | 0.00 | 76 | 1009.7 |
| 20260506144855 | 62 | 182 | 3.5 | 3.5 | 0.00 | 0.00 | 0.00 | 76 | 1009.8 |
| 20260506144351 | 62 | 117 | 2.6 | 3.5 | 0.00 | 0.00 | 0.00 | 76 | 1009.9 |
| 20260506143850 | 62 | 214 | 2.6 | 2.6 | 0.00 | 0.00 | 0.00 | 76 | 1009.8 |
| 20260506143346 | 62 | 225 | 1.7 | 2.6 | 0.00 | 0.00 | 0.00 | 76 | 1009.9 |
| 20260506142845 | 63 | 172 | 1.7 | 2.6 | 0.00 | 0.00 | 0.00 | 75 | 1010.1 |
| 20260506142342 | 63 | 159 | 1.7 | 2.6 | 0.00 | 0.00 | 0.00 | 75 | 1010.3 |
| 20260506141841 | 63 | 274 | 0.9 | 0.9 | 0.00 | 0.00 | 0.00 | 74 | 1010.1 |
| 20260506141339 | 63 | 196 | 1.7 | 2.6 | 0.00 | 0.00 | 0.00 | 74 | 1010.3 |
| 20260506140836 | 64 | 208 | 3.5 | 5.2 | 0.00 | 0.00 | 0.00 | 72 | 1010.0 |
| 20260506140333 | 63 | 226 | 1.7 | 0.9 | 0.00 | 0.00 | 0.00 | 75 | 1010.1 |
| 20260506135830 | 63 | 189 | 1.7 | 2.6 | 0.00 | 0.00 | 0.00 | 76 | 1010.2 |
| 20260506135326 | 63 | 250 | 2.6 | 3.5 | 0.00 | 0.00 | 0.00 | 75 | 1010.3 |
| 20260506134823 | 63 | 211 | 1.7 | 2.6 | 0.00 | 0.00 | 0.00 | 75 | 1010.4 |
| 20260506134319 | 62 | 216 | 1.7 | 1.7 | 0.00 | 0.00 | 0.00 | 75 | 1010.5 |
| 20260506133817 | 63 | 229 | 4.3 | 6.1 | 0.00 | 0.00 | 0.00 | 75 | 1010.1 |
| 20260506133313 | 63 | 145 | 4.3 | 6.1 | 0.00 | 0.00 | 0.00 | 75 | 1010.2 |
| 20260506132810 | 62 | 165 | 1.7 | 1.7 | 0.00 | 0.00 | 0.00 | 76 | 1010.1 |
| 20260506132307 | 62 | 159 | 1.7 | 0.9 | 0.00 | 0.00 | 0.00 | 77 | 1009.8 |
| 20260506131805 | 62 | 191 | 2.6 | 2.6 | 0.00 | 0.00 | 0.00 | 76 | 1009.9 |
| 20260506131301 | 62 | 152 | 1.7 | 2.6 | 0.00 | 0.00 | 0.00 | 76 | 1010.0 |
| 20260506130758 | 62 | 194 | 2.6 | 2.6 | 0.00 | 0.00 | 0.00 | 76 | 1009.9 |
| 20260506130254 | 62 | 188 | 0.9 | 0.9 | 0.00 | 0.00 | 0.00 | 77 | 1010.0 |
| 20260506125753 | 62 | 136 | 1.7 | 1.7 | 0.00 | 0.00 | 0.00 | 76 | 1009.9 |
| 20260506125250 | 62 | 253 | 1.7 | 2.6 | 0.00 | 0.00 | 0.00 | 75 | 1010.0 |
| 20260506124749 | 63 | 118 | 0.9 | 0.9 | 0.00 | 0.00 | 0.00 | 75 | 1010.0 |
| 20260506124246 | 62 | 196 | 1.7 | 1.7 | 0.00 | 0.00 | 0.00 | 76 | 1010.2 |
| 20260506123743 | 63 | 152 | 4.3 | 5.2 | 0.00 | 0.00 | 0.00 | 75 | 1010.3 |
| 20260506123242 | 63 | 128 | 2.6 | 3.5 | 0.00 | 0.00 | 0.00 | 76 | 1010.3 |
| 20260506122738 | 62 | 131 | 1.7 | 2.6 | 0.00 | 0.00 | 0.00 | 77 | 1010.5 |
| 20260506122235 | 62 | 114 | 3.5 | 5.2 | 0.00 | 0.00 | 0.00 | 77 | 1010.6 |
| 20260506121734 | 62 | 202 | 1.7 | 1.7 | 0.00 | 0.00 | 0.00 | 78 | 1010.5 |
| 20260506121230 | 62 | 220 | 3.5 | 3.5 | 0.00 | 0.00 | 0.00 | 78 | 1010.5 |
| 20260506120727 | 61 | 150 | 0.9 | 0.9 | 0.00 | 0.00 | 0.00 | 79 | 1010.4 |
| 20260506120225 | 61 | 241 | 1.7 | 1.7 | 0.00 | 0.00 | 0.00 | 80 | 1010.4 |
| 20260506115723 | 60 | 131 | 1.7 | 2.6 | 0.00 | 0.00 | 0.00 | 80 | 1010.3 |
| 20260506115220 | 60 | 169 | 0.9 | 0.9 | 0.00 | 0.00 | 0.00 | 80 | 1010.3 |
| 20260506114718 | 60 | 177 | 1.7 | 1.7 | 0.00 | 0.00 | 0.00 | 81 | 1010.4 |
| 20260506114216 | 60 | 75 | 0.9 | 0.9 | 0.00 | 0.00 | 0.00 | 82 | 1010.3 |
| 20260506113714 | 59 | 135 | 2.6 | 3.5 | 0.00 | 0.00 | 0.00 | 83 | 1010.3 |
| 20260506113211 | 59 | 186 | 2.6 | 2.6 | 0.00 | 0.00 | 0.00 | 84 | 1010.3 |
| 20260506112707 | 59 | 186 | 2.6 | 2.6 | 0.00 | 0.00 | 0.00 | 83 | 1010.4 |
| 20260506112205 | 59 | 156 | 2.6 | 3.5 | 0.00 | 0.00 | 0.00 | 84 | 1010.4 |
| 20260506111702 | 59 | 141 | 3.5 | 6.1 | 0.00 | 0.00 | 0.00 | 84 | 1010.4 |
| 20260506111200 | 58 | 249 | 1.7 | 1.7 | 0.00 | 0.00 | 0.00 | 84 | 1010.5 |
| 20260506110657 | 58 | 163 | 1.7 | 1.7 | 0.00 | 0.00 | 0.00 | 85 | 1010.5 |
| 20260506110155 | 58 | 248 | 0.9 | 0.9 | 0.00 | 0.00 | 0.00 | 85 | 1010.5 |
| 20260506105651 | 58 | 120 | 0.9 | 0.9 | 0.00 | 0.00 | 0.00 | 85 | 1010.6 |
| 20260506105148 | 58 | 152 | 0.9 | 0.9 | 0.00 | 0.00 | 0.00 | 86 | 1010.5 |
| 20260506104646 | 57 | 195 | 1.7 | 2.6 | 0.00 | 0.00 | 0.00 | 86 | 1010.4 |
| 20260506104143 | 57 | 159 | 1.7 | 1.7 | 0.00 | 0.00 | 0.00 | 87 | 1010.2 |
| 20260506103640 | 57 | 181 | 1.7 | 2.6 | 0.00 | 0.00 | 0.00 | 87 | 1010.2 |
| 20260506103137 | 57 | 120 | 0.9 | 0.9 | 0.00 | 0.00 | 0.00 | 87 | 1010.4 |
| 20260506102635 | 57 | 190 | 2.6 | 2.6 | 0.00 | 0.00 | 0.00 | 87 | 1010.5 |
| 20260506102132 | 56 | 142 | 0.9 | 0.9 | 0.00 | 0.00 | 0.00 | 88 | 1010.3 |
| 20260506101629 | 56 | 121 | 0.9 | 0.0 | 0.00 | 0.00 | 0.00 | 88 | 1010.3 |
| 20260506101126 | 56 | 136 | 0.9 | 0.9 | 0.00 | 0.00 | 0.00 | 88 | 1010.3 |
| 20260506100625 | 56 | 164 | 0.0 | 0.0 | 0.00 | 0.00 | 0.00 | 87 | 1010.2 |
| 20260506100122 | 56 | 139 | 0.9 | 0.9 | 0.00 | 0.00 | 0.00 | 88 | 1010.2 |
| 20260506095621 | 56 | 197 | 2.6 | 2.6 | 0.00 | 0.00 | 0.00 | 87 | 1010.2 |
| 20260506095117 | 56 | 156 | 0.9 | 1.7 | 0.00 | 0.00 | 0.00 | 87 | 1010.3 |
| 20260506094615 | 56 | 157 | 0.9 | 0.9 | 0.00 | 0.00 | 0.00 | 87 | 1010.1 |
| 20260506094112 | 56 | 227 | 1.7 | 1.7 | 0.00 | 0.00 | 0.00 | 87 | 1010.2 |
| 20260506093610 | 56 | 151 | 0.9 | 0.9 | 0.00 | 0.00 | 0.00 | 87 | 1010.2 |
| 20260506093107 | 56 | 210 | 0.9 | 0.9 | 0.00 | 0.00 | 0.00 | 87 | 1010.0 |
| 20260506092605 | 56 | 203 | 1.7 | 1.7 | 0.00 | 0.00 | 0.00 | 87 | 1009.9 |
| 20260506092101 | 56 | 170 | 1.7 | 2.6 | 0.00 | 0.00 | 0.00 | 86 | 1010.2 |
| 20260506091600 | 56 | 182 | 0.9 | 0.9 | 0.00 | 0.00 | 0.00 | 86 | 1010.3 |
| 20260506091057 | 56 | 166 | 0.9 | 0.9 | 0.00 | 0.00 | 0.00 | 86 | 1010.3 |
| 20260506090555 | 56 | 204 | 1.7 | 1.7 | 0.00 | 0.00 | 0.00 | 86 | 1010.4 |
| 20260506090051 | 56 | 231 | 1.7 | 1.7 | 0.00 | 0.00 | 0.00 | 86 | 1010.2 |
| 20260506085548 | 56 | 148 | 1.7 | 1.7 | 0.00 | 0.00 | 0.00 | 86 | 1010.3 |
| 20260506085044 | 56 | 182 | 0.9 | 0.9 | 0.00 | 0.00 | 0.00 | 86 | 1010.3 |
| 20260506084541 | 56 | 178 | 1.7 | 2.6 | 0.00 | 0.00 | 0.00 | 85 | 1010.4 |
| 20260506084037 | 56 | 180 | 1.7 | 1.7 | 0.00 | 0.00 | 0.00 | 85 | 1010.5 |
| 20260506083535 | 57 | 211 | 1.7 | 1.7 | 0.00 | 0.00 | 0.00 | 85 | 1010.6 |
| 20260506083032 | 57 | 239 | 1.7 | 1.7 | 0.00 | 0.00 | 0.00 | 85 | 1010.5 |
| 20260506082529 | 57 | 232 | 0.9 | 0.9 | 0.00 | 0.00 | 0.00 | 85 | 1010.3 |
| 20260506082024 | 57 | 152 | 0.9 | 0.9 | 0.00 | 0.00 | 0.00 | 85 | 1010.4 |
| 20260506081522 | 57 | 215 | 0.9 | 0.9 | 0.00 | 0.00 | 0.00 | 84 | 1010.6 |
| 20260506081020 | 57 | 163 | 1.7 | 1.7 | 0.00 | 0.00 | 0.00 | 84 | 1010.7 |
| 20260506080517 | 57 | 191 | 1.7 | 1.7 | 0.00 | 0.00 | 0.00 | 84 | 1010.4 |
| 20260506073501 | 57 | 248 | 1.7 | 1.7 | 0.00 | 0.00 | 0.00 | 83 | 1010.6 |
| 20260506072958 | 57 | 150 | 2.6 | 2.6 | 0.00 | 0.00 | 0.00 | 83 | 1010.7 |
| 20260506072455 | 57 | 171 | 0.9 | 0.9 | 0.00 | 0.00 | 0.00 | 83 | 1010.7 |
| 20260506071953 | 58 | 182 | 0.9 | 0.9 | 0.00 | 0.00 | 0.00 | 82 | 1010.5 |
| 20260506071450 | 58 | 166 | 1.7 | 1.7 | 0.00 | 0.00 | 0.00 | 82 | 1010.7 |
| 20260506070947 | 58 | 132 | 1.7 | 2.6 | 0.00 | 0.00 | 0.00 | 82 | 1010.5 |
| 20260506070444 | 58 | 142 | 2.6 | 3.5 | 0.00 | 0.00 | 0.00 | 82 | 1010.6 |
| 20260506062422 | 58 | 175 | 1.7 | 1.7 | 0.00 | 0.00 | 0.00 | 81 | 1010.6 |
| 20260506061918 | 58 | 165 | 0.9 | 0.9 | 0.00 | 0.00 | 0.00 | 81 | 1010.5 |
| 20260506061415 | 58 | 144 | 1.7 | 1.7 | 0.00 | 0.00 | 0.00 | 80 | 1010.6 |
| 20260506060912 | 58 | 217 | 1.7 | 1.7 | 0.00 | 0.00 | 0.00 | 80 | 1010.6 |
| 20260506060410 | 58 | 261 | 1.7 | 2.6 | 0.00 | 0.00 | 0.00 | 79 | 1010.7 |
| 20260506051342 | 60 | 217 | 1.7 | 0.9 | 0.00 | 0.00 | 0.00 | 76 | 1010.7 |
| 20260506050840 | 60 | 216 | 1.7 | 2.6 | 0.00 | 0.00 | 0.00 | 76 | 1010.8 |
| 20260506050337 | 60 | 149 | 1.7 | 1.7 | 0.00 | 0.00 | 0.00 | 76 | 1010.8 |
| 20260506044827 | 60 | 225 | 2.6 | 2.6 | 0.00 | 0.00 | 0.00 | 75 | 1011.0 |
| 20260506044325 | 61 | 191 | 1.7 | 0.9 | 0.00 | 0.00 | 0.00 | 75 | 1010.9 |
| 20260506043822 | 61 | 204 | 1.7 | 1.7 | 0.00 | 0.00 | 0.00 | 74 | 1010.8 |
| 20260506043319 | 61 | 180 | 0.9 | 0.9 | 0.00 | 0.00 | 0.00 | 74 | 1010.9 |
| 20260506042818 | 61 | 239 | 1.7 | 1.7 | 0.00 | 0.00 | 0.00 | 73 | 1011.0 |
| 20260506042316 | 61 | 149 | 0.9 | 1.7 | 0.00 | 0.00 | 0.00 | 73 | 1011.0 |
| 20260506041815 | 61 | 198 | 1.7 | 1.7 | 0.00 | 0.00 | 0.00 | 73 | 1010.8 |
| 20260506041311 | 61 | 174 | 1.7 | 1.7 | 0.00 | 0.00 | 0.00 | 73 | 1010.9 |
| 20260506040809 | 62 | 150 | 1.7 | 1.7 | 0.00 | 0.00 | 0.00 | 73 | 1011.0 |
| 20260506040306 | 62 | 263 | 2.6 | 3.5 | 0.00 | 0.00 | 0.00 | 73 | 1011.0 |
| 20260506035802 | 62 | 215 | 1.7 | 1.7 | 0.00 | 0.00 | 0.00 | 72 | 1010.9 |
| 20260506035259 | 62 | 125 | 1.7 | 1.7 | 0.00 | 0.00 | 0.00 | 72 | 1011.0 |
| 20260506034756 | 62 | 232 | 3.5 | 5.2 | 0.00 | 0.00 | 0.00 | 72 | 1011.0 |
| 20260506034254 | 62 | 173 | 1.7 | 2.6 | 0.00 | 0.00 | 0.00 | 71 | 1010.9 |
| 20260506033750 | 62 | 152 | 0.9 | 0.9 | 0.00 | 0.00 | 0.00 | 71 | 1011.0 |
| 20260506033247 | 62 | 143 | 1.7 | 2.6 | 0.00 | 0.00 | 0.00 | 71 | 1011.0 |
| 20260506032744 | 62 | 174 | 2.6 | 2.6 | 0.00 | 0.00 | 0.00 | 71 | 1010.9 |
| 20260506032241 | 62 | 125 | 0.9 | 0.9 | 0.00 | 0.00 | 0.00 | 71 | 1010.8 |
| 20260506031738 | 61 | 153 | 1.7 | 2.6 | 0.00 | 0.00 | 0.00 | 71 | 1010.8 |
| 20260506031235 | 61 | 227 | 1.7 | 2.6 | 0.00 | 0.00 | 0.00 | 71 | 1010.9 |
| 20260506030733 | 61 | 205 | 1.7 | 3.5 | 0.00 | 0.00 | 0.00 | 71 | 1011.0 |
| 20260506030230 | 61 | 111 | 0.9 | 0.9 | 0.00 | 0.00 | 0.00 | 71 | 1011.0 |
| 20260506025727 | 61 | 208 | 2.6 | 2.6 | 0.00 | 0.00 | 0.00 | 70 | 1010.9 |
| 20260506025224 | 61 | 213 | 2.6 | 5.2 | 0.00 | 0.00 | 0.00 | 70 | 1011.0 |
| 20260506024721 | 61 | 188 | 1.7 | 1.7 | 0.00 | 0.00 | 0.00 | 70 | 1011.0 |
| 20260506024217 | 61 | 258 | 2.6 | 2.6 | 0.00 | 0.00 | 0.00 | 70 | 1011.0 |
| 20260506023714 | 61 | 154 | 1.7 | 2.6 | 0.00 | 0.00 | 0.00 | 69 | 1011.0 |
| 20260506023211 | 61 | 202 | 4.3 | 5.2 | 0.00 | 0.00 | 0.00 | 69 | 1011.0 |
| 20260506022708 | 62 | 152 | 2.6 | 6.1 | 0.00 | 0.00 | 0.00 | 69 | 1011.2 |
| 20260506022205 | 62 | 55 | 0.9 | 0.9 | 0.00 | 0.00 | 0.00 | 68 | 1011.0 |
| 20260506021703 | 62 | 152 | 5.2 | 6.1 | 0.00 | 0.00 | 0.00 | 68 | 1011.0 |
| 20260506021200 | 62 | 237 | 3.5 | 5.2 | 0.00 | 0.00 | 0.00 | 67 | 1010.8 |
| 20260506020657 | 62 | 334 | 1.7 | 1.7 | 0.00 | 0.00 | 0.00 | 66 | 1010.8 |
| 20260506020155 | 63 | 247 | 2.6 | 5.2 | 0.00 | 0.00 | 0.00 | 66 | 1010.6 |
| 20260506015652 | 63 | 151 | 1.7 | 1.7 | 0.00 | 0.00 | 0.00 | 66 | 1010.6 |
| 20260506015149 | 63 | 131 | 1.7 | 1.7 | 0.00 | 0.00 | 0.00 | 65 | 1010.5 |
| 20260506014646 | 63 | 115 | 3.5 | 5.2 | 0.00 | 0.00 | 0.00 | 65 | 1010.6 |
| 20260506014142 | 63 | 70 | 1.7 | 2.6 | 0.00 | 0.00 | 0.00 | 65 | 1010.5 |
| 20260506013640 | 63 | 177 | 0.9 | 3.5 | 0.00 | 0.00 | 0.00 | 65 | 1010.4 |
| 20260506013137 | 63 | 51 | 1.7 | 2.6 | 0.00 | 0.00 | 0.00 | 65 | 1010.3 |
| 20260506012633 | 63 | 255 | 3.5 | 6.1 | 0.00 | 0.00 | 0.00 | 65 | 1010.4 |
| 20260506012130 | 63 | 148 | 1.7 | 2.6 | 0.00 | 0.00 | 0.00 | 65 | 1010.3 |
| 20260506011628 | 63 | 177 | 2.6 | 3.5 | 0.00 | 0.00 | 0.00 | 65 | 1010.2 |
| 20260506011123 | 63 | 247 | 3.5 | 3.5 | 0.00 | 0.00 | 0.00 | 64 | 1010.1 |
| 20260506010622 | 63 | 242 | 4.3 | 5.2 | 0.00 | 0.00 | 0.00 | 65 | 1010.1 |
| 20260506010119 | 63 | 235 | 3.5 | 6.1 | 0.00 | 0.00 | 0.00 | 65 | 1010.1 |
| 20260506005616 | 63 | 239 | 1.7 | 1.7 | 0.00 | 0.00 | 0.00 | 64 | 1010.1 |
| 20260506005112 | 63 | 144 | 1.7 | 2.6 | 0.00 | 0.00 | 0.00 | 64 | 1010.0 |
| 20260506004609 | 63 | 211 | 2.6 | 2.6 | 0.00 | 0.00 | 0.00 | 63 | 1009.9 |
| 20260506004106 | 64 | 266 | 1.7 | 2.6 | 0.00 | 0.00 | 0.00 | 63 | 1009.8 |
| 20260506003603 | 64 | 254 | 2.6 | 2.6 | 0.00 | 0.00 | 0.00 | 63 | 1009.7 |
| 20260506003059 | 63 | 145 | 4.3 | 7.8 | 0.00 | 0.00 | 0.00 | 63 | 1009.8 |
| 20260506002554 | 63 | 248 | 3.5 | 3.5 | 0.00 | 0.00 | 0.00 | 64 | 1009.6 |
| 20260506002051 | 63 | 158 | 1.7 | 1.7 | 0.00 | 0.00 | 0.00 | 64 | 1009.7 |
| 20260506001547 | 63 | 136 | 1.7 | 1.7 | 0.00 | 0.00 | 0.00 | 64 | 1009.8 |
| 20260506001044 | 63 | 128 | 1.7 | 2.6 | 0.00 | 0.00 | 0.00 | 64 | 1009.6 |
| 20260506000542 | 63 | 147 | 2.6 | 2.6 | 0.00 | 0.00 | 0.00 | 64 | 1009.5 |
| 20260506000039 | 63 | 255 | 1.7 | 1.7 | 0.00 | 0.00 | 0.00 | 63 | 1009.4 |
| 20260505235537 | 63 | 88 | 3.5 | 3.5 | 0.00 | 0.00 | 0.00 | 62 | 1009.2 |
| 20260505235034 | 64 | 143 | 1.7 | 1.7 | 0.00 | 0.00 | 0.00 | 62 | 1009.2 |
| 20260505234531 | 64 | 264 | 3.5 | 5.2 | 0.00 | 0.00 | 0.00 | 62 | 1009.0 |
| 20260505234027 | 64 | 173 | 2.6 | 2.6 | 0.00 | 0.00 | 0.00 | 62 | 1009.1 |
| 20260505233525 | 64 | 209 | 1.7 | 2.6 | 0.00 | 0.00 | 0.00 | 61 | 1009.1 |
| 20260505233022 | 64 | 196 | 1.7 | 1.7 | 0.00 | 0.00 | 0.00 | 61 | 1008.7 |
| 20260505232520 | 64 | 85 | 0.9 | 0.9 | 0.00 | 0.00 | 0.00 | 61 | 1008.7 |
| 20260505232017 | 64 | 232 | 0.9 | 0.9 | 0.00 | 0.00 | 0.00 | 61 | 1008.8 |
| 20260505231514 | 65 | 192 | 1.7 | 1.7 | 0.00 | 0.00 | 0.00 | 60 | 1008.9 |
| 20260505231013 | 65 | 217 | 2.6 | 3.5 | 0.00 | 0.00 | 0.00 | 60 | 1008.7 |
| 20260505230509 | 66 | 130 | 0.9 | 0.9 | 0.00 | 0.00 | 0.00 | 59 | 1008.7 |
| 20260505230006 | 66 | 210 | 1.7 | 1.7 | 0.00 | 0.00 | 0.00 | 59 | 1008.7 |
| 20260505225503 | 66 | 215 | 0.9 | 1.7 | 0.00 | 0.00 | 0.00 | 59 | 1008.4 |
| 20260505224959 | 66 | 154 | 1.7 | 1.7 | 0.00 | 0.00 | 0.00 | 59 | 1008.4 |
| 20260505224456 | 67 | 112 | 1.7 | 1.7 | 0.00 | 0.00 | 0.00 | 58 | 1008.3 |
| 20260505223953 | 68 | 16 | 0.9 | 0.9 | 0.00 | 0.00 | 0.00 | 57 | 1008.6 |
| 20260505223450 | 68 | 147 | 3.5 | 6.1 | 0.00 | 0.00 | 0.00 | 56 | 1008.8 |
| 20260505222946 | 68 | 245 | 2.6 | 3.5 | 0.00 | 0.00 | 0.00 | 56 | 1008.6 |
| 20260505222443 | 68 | 238 | 1.7 | 2.6 | 0.00 | 0.00 | 0.00 | 55 | 1008.5 |
| 20260505221939 | 68 | 199 | 0.9 | 1.7 | 0.00 | 0.00 | 0.00 | 55 | 1008.5 |
| 20260505221436 | 69 | 93 | 1.7 | 1.7 | 0.00 | 0.00 | 0.00 | 55 | 1008.8 |
| 20260505220933 | 69 | 241 | 0.9 | 0.9 | 0.00 | 0.00 | 0.00 | 55 | 1008.6 |
| 20260505220430 | 69 | 141 | 2.6 | 3.5 | 0.00 | 0.00 | 0.00 | 54 | 1008.7 |
| 20260505215928 | 69 | 297 | 0.9 | 0.9 | 0.00 | 0.00 | 0.00 | 55 | 1008.6 |
| 20260505215426 | 69 | 145 | 2.6 | 2.6 | 0.00 | 0.00 | 0.00 | 55 | 1008.4 |
| 20260505214923 | 69 | 176 | 1.7 | 1.7 | 0.00 | 0.00 | 0.00 | 55 | 1008.5 |
| 20260505214421 | 70 | 219 | 5.2 | 7.0 | 0.00 | 0.00 | 0.00 | 54 | 1008.8 |
| 20260505213918 | 70 | 142 | 1.7 | 1.7 | 0.00 | 0.00 | 0.00 | 55 | 1008.6 |
| 20260505213416 | 71 | 160 | 2.6 | 2.6 | 0.00 | 0.00 | 0.00 | 53 | 1008.5 |
| 20260505212912 | 71 | 227 | 3.5 | 3.5 | 0.00 | 0.00 | 0.00 | 53 | 1008.4 |
| 20260505212408 | 71 | 202 | 1.7 | 1.7 | 0.00 | 0.00 | 0.00 | 52 | 1008.4 |
| 20260505211905 | 71 | 66 | 1.7 | 2.6 | 0.00 | 0.00 | 0.00 | 54 | 1008.6 |
| 20260505211403 | 71 | 114 | 1.7 | 1.7 | 0.00 | 0.00 | 0.00 | 53 | 1008.2 |
| 20260505210859 | 71 | 154 | 1.7 | 1.7 | 0.00 | 0.00 | 0.00 | 54 | 1008.4 |
| 20260505210356 | 71 | 139 | 1.7 | 1.7 | 0.00 | 0.00 | 0.00 | 54 | 1008.5 |
| 20260505205852 | 71 | 131 | 3.5 | 3.5 | 0.00 | 0.00 | 0.00 | 53 | 1008.6 |
| 20260505205351 | 72 | 218 | 2.6 | 5.2 | 0.00 | 0.00 | 0.00 | 52 | 1008.5 |
| 20260505204848 | 72 | 202 | 2.6 | 2.6 | 0.00 | 0.00 | 0.00 | 52 | 1008.4 |
| 20260505204345 | 72 | 158 | 2.6 | 2.6 | 0.00 | 0.00 | 0.00 | 53 | 1008.5 |
| 20260505203842 | 73 | 240 | 4.3 | 6.1 | 0.00 | 0.00 | 0.00 | 52 | 1008.3 |
| 20260505203339 | 73 | 216 | 3.5 | 5.2 | 0.00 | 0.00 | 0.00 | 50 | 1008.4 |
| 20260505202835 | 73 | 207 | 2.6 | 3.5 | 0.00 | 0.00 | 0.00 | 51 | 1008.5 |
| 20260505202331 | 74 | 198 | 1.7 | 3.5 | 0.00 | 0.00 | 0.00 | 50 | 1008.5 |
| 20260505201828 | 73 | 100 | 0.9 | 0.9 | 0.00 | 0.00 | 0.00 | 53 | 1008.6 |
| 20260505201326 | 73 | 244 | 2.6 | 2.6 | 0.00 | 0.00 | 0.00 | 50 | 1008.6 |
| 20260505200824 | 73 | 42 | 1.7 | 1.7 | 0.00 | 0.00 | 0.00 | 51 | 1008.7 |
| 20260505200320 | 74 | 227 | 3.5 | 7.0 | 0.00 | 0.00 | 0.00 | 51 | 1008.7 |
| 20260505195816 | 73 | 250 | 4.3 | 5.2 | 0.00 | 0.00 | 0.00 | 50 | 1008.7 |
| 20260505195314 | 74 | 179 | 1.7 | 1.7 | 0.00 | 0.00 | 0.00 | 52 | 1008.8 |
| 20260505194810 | 73 | 133 | 0.9 | 0.9 | 0.00 | 0.00 | 0.00 | 53 | 1008.8 |
| 20260505194308 | 74 | 105 | 4.3 | 6.1 | 0.00 | 0.00 | 0.00 | 51 | 1008.7 |
| 20260505193803 | 74 | 236 | 3.5 | 5.2 | 0.00 | 0.00 | 0.00 | 50 | 1008.7 |
| 20260505193301 | 73 | 149 | 3.5 | 3.5 | 0.00 | 0.00 | 0.00 | 54 | 1009.0 |
| 20260505192759 | 73 | 188 | 3.5 | 6.1 | 0.00 | 0.00 | 0.00 | 53 | 1008.9 |
| 20260505192256 | 74 | 110 | 2.6 | 2.6 | 0.00 | 0.00 | 0.00 | 53 | 1008.9 |
| 20260505191754 | 73 | 201 | 3.5 | 3.5 | 0.00 | 0.00 | 0.00 | 52 | 1009.1 |
| 20260505191252 | 74 | 174 | 4.3 | 7.0 | 0.00 | 0.00 | 0.00 | 51 | 1009.4 |
| 20260505190748 | 74 | 173 | 3.5 | 3.5 | 0.00 | 0.00 | 0.00 | 53 | 1009.3 |
| 20260505190243 | 74 | 165 | 3.5 | 5.2 | 0.00 | 0.00 | 0.00 | 51 | 1009.5 |
| 20260505185740 | 74 | 210 | 3.5 | 3.5 | 0.00 | 0.00 | 0.00 | 52 | 1009.5 |
| 20260505185237 | 74 | 166 | 2.6 | 3.5 | 0.00 | 0.00 | 0.00 | 54 | 1009.5 |
| 20260505184732 | 74 | 248 | 2.6 | 3.5 | 0.00 | 0.00 | 0.00 | 51 | 1009.7 |
| 20260505184230 | 74 | 146 | 4.3 | 7.0 | 0.00 | 0.00 | 0.00 | 52 | 1009.6 |
| 20260505183727 | 73 | 227 | 1.7 | 2.6 | 0.00 | 0.00 | 0.00 | 55 | 1009.5 |
| 20260505183224 | 74 | 135 | 3.5 | 6.1 | 0.00 | 0.00 | 0.00 | 53 | 1009.5 |
| 20260505182720 | 74 | 141 | 2.6 | 2.6 | 0.00 | 0.00 | 0.00 | 53 | 1009.5 |
| 20260505182218 | 74 | 208 | 5.2 | 6.1 | 0.00 | 0.00 | 0.00 | 51 | 1009.4 |
| 20260505181714 | 74 | 186 | 3.5 | 3.5 | 0.00 | 0.00 | 0.00 | 52 | 1009.5 |
| 20260505181212 | 74 | 179 | 4.3 | 5.2 | 0.00 | 0.00 | 0.00 | 51 | 1009.6 |
| 20260505180708 | 74 | 174 | 3.5 | 3.5 | 0.00 | 0.00 | 0.00 | 52 | 1009.6 |
| 20260505180205 | 74 | 217 | 2.6 | 2.6 | 0.00 | 0.00 | 0.00 | 52 | 1009.5 |
| 20260505175700 | 73 | 171 | 3.5 | 3.5 | 0.00 | 0.00 | 0.00 | 52 | 1009.6 |
| 20260505175157 | 74 | 149 | 3.5 | 3.5 | 0.00 | 0.00 | 0.00 | 53 | 1009.6 |
| 20260505174654 | 74 | 176 | 3.5 | 3.5 | 0.00 | 0.00 | 0.00 | 52 | 1009.7 |
| 20260505174150 | 74 | 185 | 4.3 | 5.2 | 0.00 | 0.00 | 0.00 | 52 | 1009.6 |
| 20260505173647 | 74 | 165 | 2.6 | 2.6 | 0.00 | 0.00 | 0.00 | 54 | 1009.6 |
| 20260505173144 | 75 | 236 | 3.5 | 3.5 | 0.00 | 0.00 | 0.00 | 52 | 1009.7 |
| 20260505172641 | 74 | 166 | 0.9 | 1.7 | 0.00 | 0.00 | 0.00 | 53 | 1009.6 |
| 20260505172138 | 76 | 164 | 3.5 | 5.2 | 0.00 | 0.00 | 0.00 | 50 | 1009.8 |
| 20260505171637 | 75 | 197 | 1.7 | 1.7 | 0.00 | 0.00 | 0.00 | 51 | 1010.0 |
| 20260505171135 | 75 | 197 | 2.6 | 2.6 | 0.00 | 0.00 | 0.00 | 51 | 1009.8 |
| 20260505170632 | 74 | 244 | 2.6 | 2.6 | 0.00 | 0.00 | 0.00 | 55 | 1009.7 |
| 20260505170128 | 74 | 125 | 1.7 | 2.6 | 0.00 | 0.00 | 0.00 | 55 | 1010.0 |
| 20260505165623 | 75 | 138 | 1.7 | 1.7 | 0.00 | 0.00 | 0.00 | 54 | 1009.9 |
| 20260505165120 | 74 | 175 | 0.9 | 0.9 | 0.00 | 0.00 | 0.00 | 55 | 1009.9 |
| 20260505164615 | 75 | 164 | 2.6 | 2.6 | 0.00 | 0.00 | 0.00 | 53 | 1009.9 |
| 20260505164113 | 74 | 138 | 0.9 | 0.9 | 0.00 | 0.00 | 0.00 | 55 | 1010.0 |
| 20260505163612 | 74 | 261 | 2.6 | 3.5 | 0.00 | 0.00 | 0.00 | 51 | 1010.0 |
| 20260505163109 | 73 | 142 | 1.7 | 1.7 | 0.00 | 0.00 | 0.00 | 54 | 1010.2 |